Location: Buckeye Ditch
(40.9104°N, 122.9517°W)
Time: 14:33:41
(UTC+00:00)

Envisat - Visible Passes

Search period start: 21 June 2024 00:00
Search period end: 01 July 2024 00:00
Orbit: 762 x 764 km, 98.3° (Epoch: 20 June)

Date Brightness Start Highest point End Pass type
(mag) Time Alt. Az. Time Alt. Az. Time Alt. Az.
21 Jun 5.5 10:04:47 10° ENE 10:06:45 12° E 10:08:42 10° ESE visible
21 Jun 3.0 11:41:10 10° N 11:46:15 75° WNW 11:51:18 10° SSW visible
22 Jun 3.8 11:03:56 10° NNE 11:08:51 48° E 11:13:43 10° S visible
23 Jun 5.1 10:27:25 10° NE 10:31:15 21° E 10:35:03 10° SE visible
23 Jun 3.5 12:05:35 10° N 12:10:23 44° WNW 12:15:10 10° SW visible
24 Jun 3.1 11:28:01 10° NNE 11:33:07 83° ESE 11:38:11 10° SSW visible
25 Jun 4.3 10:50:59 10° NNE 10:55:39 36° E 11:00:17 10° SSE visible
26 Jun 5.4 10:14:54 10° NE 10:17:58 16° E 10:21:02 10° SE visible
26 Jun 3.2 11:52:19 10° N 11:57:18 59° WNW 12:02:16 10° SSW visible
27 Jun 3.4 11:14:55 10° NNE 11:19:58 62° E 11:24:58 10° S visible
28 Jun 4.7 10:38:07 10° NE 10:42:25 27° E 10:46:41 10° SSE visible
29 Jun 5.6 10:02:55 10° ENE 10:04:40 12° E 10:06:26 10° ESE visible
29 Jun 3.0 11:39:06 10° N 11:44:11 78° WNW 11:49:15 10° SSW visible
30 Jun 3.9 11:01:53 10° NNE 11:06:47 46° E 11:11:38 10° S visible
